Location: Newark
(40.3500°N, 15.2333°E)
Time: 20:15:44
(UTC+00:00)

Explorer 7 - All Passes

Search period start: 26 January 2020 00:00
Search period end: 05 February 2020 00:00
Orbit: 485 x 679 km, 50.3° (Epoch: 26 January)

Date Brightness Start Highest point End Pass type
(mag) Time Alt. Az. Time Alt. Az. Time Alt. Az.
26 Jan - 00:20:52 10° NW 00:23:32 18° N 00:26:14 10° NE night (unlit)
26 Jan - 02:01:26 10° NW 02:04:52 31° NNE 02:08:27 10° E night (unlit)
26 Jan - 03:41:42 10° WNW 03:45:32 55° SW 03:49:34 10° SE visible
26 Jan - 19:24:08 10° SSE 19:26:18 15° SE 19:28:27 10° E night (unlit)
26 Jan - 21:02:34 10° WSW 21:06:22 79° NW 21:10:07 10° NE night (unlit)
26 Jan - 22:44:15 10° WNW 22:47:17 22° NNW 22:50:19 10° NE night (unlit)
27 Jan - 00:25:59 10° NW 00:28:45 19° N 00:31:33 10° NE night (unlit)
27 Jan - 02:06:17 10° NW 02:09:56 43° NNE 02:13:45 10° E night (unlit)
27 Jan - 03:46:50 10° WNW 03:50:22 33° SW 03:54:03 10° SSE visible
27 Jan - 19:27:50 10° S 19:31:03 25° SE 19:34:12 10° E night (unlit)
27 Jan - 21:07:37 10° WSW 21:11:20 50° NNW 21:15:00 10° NE night (unlit)
27 Jan - 22:49:40 10° WNW 22:52:27 19° N 22:55:16 10° NE night (unlit)
28 Jan - 00:30:59 10° NW 00:33:56 21° NNE 00:36:57 10° ENE night (unlit)
28 Jan - 02:11:08 10° NW 02:14:56 65° NNE 02:18:54 10° ESE night (unlit)
28 Jan - 03:52:16 10° W 03:55:09 20° SW 03:58:07 10° S visible
28 Jan - 19:32:10 10° SSW 19:35:51 42° SE 19:39:27 10° ENE night (unlit)
28 Jan - 21:12:52 10° W 21:16:23 34° NNW 21:19:51 10° NE night (unlit)
28 Jan - 22:55:01 10° NW 22:57:41 18° N 23:00:20 10° NE night (unlit)
29 Jan - 00:35:53 10° NW 00:39:05 26° NNE 00:42:22 10° ENE night (unlit)
29 Jan - 02:16:03 10° WNW 02:19:53 79° SW 02:23:52 10° SE night (unlit)
29 Jan - 03:58:37 10° WSW 03:59:52 11° SW 04:01:08 10° SSW visible
29 Jan - 18:00:35 10° SE 18:00:47 10° SE 18:00:59 10° SE visible
29 Jan - 19:36:51 10° SW 19:40:43 74° SE 19:44:29 10° ENE visible
29 Jan - 21:18:14 10° WNW 21:21:29 26° NNW 21:24:41 10° NE night (unlit)
29 Jan - 23:00:14 10° NW 23:02:53 18° N 23:05:33 10° NE night (unlit)
30 Jan - 00:40:44 10° NW 00:44:12 33° NNE 00:47:44 10° E night (unlit)
30 Jan - 02:21:05 10° WNW 02:24:44 46° SW 02:28:34 10° SSE night (unlit)
30 Jan - 18:02:46 10° S 18:05:30 18° SE 18:08:09 10° E visible
30 Jan - 19:41:46 10° WSW 19:45:39 68° NNW 19:49:25 10° NE visible
30 Jan - 21:23:38 10° WNW 21:26:37 21° NNW 21:29:35 10° NE night (unlit)
30 Jan - 23:05:19 10° NW 23:08:06 19° N 23:10:54 10° ENE night (unlit)
31 Jan - 00:45:34 10° NW 00:49:14 48° NNE 00:53:00 10° ESE night (unlit)
31 Jan - 02:26:18 10° WNW 02:29:34 27° SW 02:32:57 10° SSE night (unlit)
31 Jan - 18:06:44 10° SSW 18:10:16 30° SE 18:13:39 10° ENE visible
31 Jan - 19:46:54 10° W 19:50:38 44° NNW 19:54:17 10° NE visible
31 Jan - 21:29:03 10° NW 21:31:49 19° N 21:34:33 10° NE night (unlit)
31 Jan - 23:10:16 10° NW 23:13:17 22° NNE 23:16:18 10° ENE night (unlit)
01 Feb - 00:50:27 10° NW 00:54:12 75° NNE 00:58:05 10° ESE night (unlit)
01 Feb - 02:31:55 10° W 02:34:19 16° SW 02:36:46 10° S night (unlit)
01 Feb - 18:11:11 10° SW 18:15:05 51° SE 18:18:49 10° ENE visible
01 Feb - 19:52:11 10° W 19:55:41 31° NNW 19:59:07 10° NE visible
01 Feb - 21:34:22 10° NW 21:37:01 18° N 21:39:40 10° NE night (unlit)
01 Feb - 23:15:09 10° NW 23:18:25 27° NNE 23:21:43 10° E night (unlit)
02 Feb - 00:55:23 10° WNW 00:59:07 66° SW 01:02:58 10° SE night (unlit)
02 Feb - 16:38:05 10° SSE 16:39:56 13° SE 16:41:45 10° ESE daylight
02 Feb - 18:15:58 10° SW 18:19:58 87° SE 18:23:49 10° ENE visible
02 Feb - 19:57:34 10° WNW 20:00:48 25° NNW 20:03:58 10° NE visible
02 Feb - 21:39:33 10° NW 21:42:14 18° N 21:44:55 10° NE night (unlit)
02 Feb - 23:19:59 10° NW 23:23:30 37° NNE 23:27:03 10° E night (unlit)
03 Feb - 01:00:28 10° WNW 01:03:58 38° SW 01:07:35 10° SSE night (unlit)
03 Feb - 16:41:29 10° S 16:44:40 22° SE 16:47:45 10° E visible
03 Feb - 18:20:58 10° WSW 18:24:55 59° NNW 18:28:43 10° NE visible
03 Feb - 20:02:59 10° WNW 20:05:58 21° NNW 20:08:53 10° NE visible
03 Feb - 21:44:35 10° NW 21:47:26 20° N 21:50:17 10° ENE night (unlit)
03 Feb - 23:24:50 10° NW 23:28:32 54° NNE 23:32:15 10° ESE night (unlit)
04 Feb - 01:05:47 10° W 01:08:46 22° SW 01:11:49 10° S night (unlit)
04 Feb - 16:45:39 10° SSW 16:49:27 36° SE 16:53:05 10° ENE visible
04 Feb - 18:26:09 10° W 18:29:55 40° NNW 18:33:34 10° NE visible
04 Feb - 20:08:23 10° NW 20:11:09 19° N 20:13:53 10° NE visible
04 Feb - 21:49:31 10° NW 21:52:36 23° NNE 21:55:42 10° ENE night (unlit)
04 Feb - 23:29:43 10° NW 23:33:29 87° NE 23:37:18 10° SE night (unlit)
